﻿測定場所 (Monitoring sites),日付 (Measurement date),時間 (Measurement time),線量率 最大値 (max) μGy/h,線量率 最小値 (min) μGy/h,線量率 平均値 (average) μGy/h,
江戸川 (Edogawa),2023-08-06,23:01～24:00,0.0463,0.0402,0.0424,
江戸川 (Edogawa),2023-08-06,22:01～23:00,0.0466,0.0390,0.0423,
江戸川 (Edogawa),2023-08-06,21:01～22:00,0.0460,0.0389,0.0421,
江戸川 (Edogawa),2023-08-06,20:01～21:00,0.0458,0.0387,0.0427,
江戸川 (Edogawa),2023-08-06,19:01～20:00,0.0459,0.0388,0.0424,
江戸川 (Edogawa),2023-08-06,18:01～19:00,0.0460,0.0390,0.0423,
江戸川 (Edogawa),2023-08-06,17:01～18:00,0.0447,0.0380,0.0421,
江戸川 (Edogawa),2023-08-06,16:01～17:00,0.0459,0.0400,0.0425,
江戸川 (Edogawa),2023-08-06,15:01～16:00,0.0456,0.0389,0.0421,
江戸川 (Edogawa),2023-08-06,14:01～15:00,0.0452,0.0394,0.0422,
江戸川 (Edogawa),2023-08-06,13:01～14:00,0.0466,0.0374,0.0421,
江戸川 (Edogawa),2023-08-06,12:01～13:00,0.0446,0.0390,0.0421,
江戸川 (Edogawa),2023-08-06,11:01～12:00,0.0450,0.0392,0.0421,
江戸川 (Edogawa),2023-08-06,10:01～11:00,0.0450,0.0395,0.0420,
江戸川 (Edogawa),2023-08-06,09:01～10:00,0.0452,0.0391,0.0426,
江戸川 (Edogawa),2023-08-06,08:01～09:00,0.0458,0.0387,0.0420,
江戸川 (Edogawa),2023-08-06,07:01～08:00,0.0449,0.0391,0.0421,
江戸川 (Edogawa),2023-08-06,06:01～07:00,0.0453,0.0396,0.0423,
江戸川 (Edogawa),2023-08-06,05:01～06:00,0.0456,0.0388,0.0424,
江戸川 (Edogawa),2023-08-06,04:01～05:00,0.0447,0.0388,0.0423,
江戸川 (Edogawa),2023-08-06,03:01～04:00,0.0459,0.0397,0.0424,
江戸川 (Edogawa),2023-08-06,02:01～03:00,0.0450,0.0383,0.0421,
江戸川 (Edogawa),2023-08-06,01:01～02:00,0.0451,0.0393,0.0423,
江戸川 (Edogawa),2023-08-06,00:01～01:00,0.0461,0.0397,0.0425,
江戸川 (Edogawa),2023-08-05,23:01～24:00,0.0461,0.0387,0.0423,
江戸川 (Edogawa),2023-08-05,22:01～23:00,0.0453,0.0389,0.0421,
江戸川 (Edogawa),2023-08-05,21:01～22:00,0.0457,0.0395,0.0420,
江戸川 (Edogawa),2023-08-05,20:01～21:00,0.0446,0.0380,0.0407,
江戸川 (Edogawa),2023-08-05,19:01～20:00,0.0436,0.0385,0.0409,
江戸川 (Edogawa),2023-08-05,18:01～19:00,0.0441,0.0387,0.0416,
江戸川 (Edogawa),2023-08-05,17:01～18:00,0.0450,0.0383,0.0419,
江戸川 (Edogawa),2023-08-05,16:01～17:00,0.0452,0.0392,0.0422,
江戸川 (Edogawa),2023-08-05,15:01～16:00,0.0444,0.0392,0.0420,
江戸川 (Edogawa),2023-08-05,14:01～15:00,0.0450,0.0390,0.0421,
江戸川 (Edogawa),2023-08-05,13:01～14:00,0.0448,0.0393,0.0421,
江戸川 (Edogawa),2023-08-05,12:01～13:00,0.0456,0.0386,0.0424,
江戸川 (Edogawa),2023-08-05,11:01～12:00,0.0453,0.0395,0.0424,
江戸川 (Edogawa),2023-08-05,10:01～11:00,0.0459,0.0394,0.0422,
江戸川 (Edogawa),2023-08-05,09:01～10:00,0.0459,0.0393,0.0424,
江戸川 (Edogawa),2023-08-05,08:01～09:00,0.0451,0.0399,0.0426,
江戸川 (Edogawa),2023-08-05,07:01～08:00,0.0466,0.0394,0.0420,
江戸川 (Edogawa),2023-08-05,06:01～07:00,0.0462,0.0398,0.0423,
江戸川 (Edogawa),2023-08-05,05:01～06:00,0.0450,0.0392,0.0420,
江戸川 (Edogawa),2023-08-05,04:01～05:00,0.0459,0.0397,0.0426,
江戸川 (Edogawa),2023-08-05,03:01～04:00,0.0461,0.0395,0.0425,
江戸川 (Edogawa),2023-08-05,02:01～03:00,0.0479,0.0404,0.0427,
江戸川 (Edogawa),2023-08-05,01:01～02:00,0.0454,0.0398,0.0426,
江戸川 (Edogawa),2023-08-05,00:01～01:00,0.0462,0.0367,0.0421,
江戸川 (Edogawa),2023-08-04,23:01～24:00,0.0457,0.0395,0.0423,
江戸川 (Edogawa),2023-08-04,22:01～23:00,0.0458,0.0397,0.0424,
江戸川 (Edogawa),2023-08-04,21:01～22:00,0.0454,0.0398,0.0424,
江戸川 (Edogawa),2023-08-04,20:01～21:00,0.0448,0.0400,0.0424,
江戸川 (Edogawa),2023-08-04,19:01～20:00,0.0451,0.0397,0.0424,
江戸川 (Edogawa),2023-08-04,18:01～19:00,0.0451,0.0393,0.0423,
江戸川 (Edogawa),2023-08-04,17:01～18:00,0.0453,0.0389,0.0423,
江戸川 (Edogawa),2023-08-04,16:01～17:00,0.0450,0.0389,0.0422,
江戸川 (Edogawa),2023-08-04,15:01～16:00,0.0469,0.0394,0.0424,
江戸川 (Edogawa),2023-08-04,14:01～15:00,0.0446,0.0393,0.0424,
江戸川 (Edogawa),2023-08-04,13:01～14:00,0.0452,0.0399,0.0423,
江戸川 (Edogawa),2023-08-04,12:01～13:00,0.0447,0.0398,0.0423,
江戸川 (Edogawa),2023-08-04,11:01～12:00,0.0453,0.0385,0.0423,
江戸川 (Edogawa),2023-08-04,10:01～11:00,0.0459,0.0388,0.0425,
江戸川 (Edogawa),2023-08-04,09:01～10:00,0.0459,0.0388,0.0426,
江戸川 (Edogawa),2023-08-04,08:01～09:00,0.0469,0.0400,0.0430,
江戸川 (Edogawa),2023-08-04,07:01～08:00,0.0458,0.0404,0.0432,
江戸川 (Edogawa),2023-08-04,06:01～07:00,0.0460,0.0380,0.0430,
江戸川 (Edogawa),2023-08-04,05:01～06:00,0.0469,0.0392,0.0438,
江戸川 (Edogawa),2023-08-04,04:01～05:00,0.0464,0.0400,0.0431,
江戸川 (Edogawa),2023-08-04,03:01～04:00,0.0448,0.0395,0.0425,
江戸川 (Edogawa),2023-08-04,02:01～03:00,0.0460,0.0396,0.0426,
江戸川 (Edogawa),2023-08-04,01:01～02:00,0.0445,0.0381,0.0421,
江戸川 (Edogawa),2023-08-04,00:01～01:00,0.0464,0.0393,0.0422,
江戸川 (Edogawa),2023-08-03,23:01～24:00,0.0448,0.0387,0.0419,
江戸川 (Edogawa),2023-08-03,22:01～23:00,0.0452,0.0393,0.0421,
江戸川 (Edogawa),2023-08-03,21:01～22:00,0.0441,0.0392,0.0418,
江戸川 (Edogawa),2023-08-03,20:01～21:00,0.0452,0.0396,0.0422,
江戸川 (Edogawa),2023-08-03,19:01～20:00,0.0466,0.0398,0.0419,
江戸川 (Edogawa),2023-08-03,18:01～19:00,0.0444,0.0388,0.0419,
江戸川 (Edogawa),2023-08-03,17:01～18:00,0.0460,0.0399,0.0418,
江戸川 (Edogawa),2023-08-03,16:01～17:00,0.0453,0.0382,0.0422,
江戸川 (Edogawa),2023-08-03,15:01～16:00,0.0450,0.0381,0.0420,
江戸川 (Edogawa),2023-08-03,14:01～15:00,0.0467,0.0396,0.0422,
江戸川 (Edogawa),2023-08-03,13:01～14:00,0.0451,0.0393,0.0423,
江戸川 (Edogawa),2023-08-03,12:01～13:00,0.0456,0.0394,0.0428,
江戸川 (Edogawa),2023-08-03,11:01～12:00,0.0462,0.0395,0.0424,
江戸川 (Edogawa),2023-08-03,10:01～11:00,0.0457,0.0378,0.0419,
江戸川 (Edogawa),2023-08-03,09:01～10:00,0.0457,0.0370,0.0422,
江戸川 (Edogawa),2023-08-03,08:01～09:00,0.0448,0.0392,0.0421,
江戸川 (Edogawa),2023-08-03,07:01～08:00,0.0446,0.0398,0.0419,
江戸川 (Edogawa),2023-08-03,06:01～07:00,0.0454,0.0394,0.0422,
江戸川 (Edogawa),2023-08-03,05:01～06:00,0.0449,0.0396,0.0421,
江戸川 (Edogawa),2023-08-03,04:01～05:00,0.0450,0.0387,0.0419,
江戸川 (Edogawa),2023-08-03,03:01～04:00,0.0454,0.0390,0.0423,
江戸川 (Edogawa),2023-08-03,02:01～03:00,0.0457,0.0391,0.0421,
江戸川 (Edogawa),2023-08-03,01:01～02:00,0.0453,0.0392,0.0420,
江戸川 (Edogawa),2023-08-03,00:01～01:00,0.0456,0.0391,0.0422,
江戸川 (Edogawa),2023-08-02,23:01～24:00,0.0449,0.0398,0.0422,
江戸川 (Edogawa),2023-08-02,22:01～23:00,0.0448,0.0387,0.0418,
江戸川 (Edogawa),2023-08-02,21:01～22:00,0.0456,0.0391,0.0422,
江戸川 (Edogawa),2023-08-02,20:01～21:00,0.0444,0.0381,0.0417,
江戸川 (Edogawa),2023-08-02,19:01～20:00,0.0442,0.0394,0.0419,
江戸川 (Edogawa),2023-08-02,18:01～19:00,0.0453,0.0391,0.0418,
江戸川 (Edogawa),2023-08-02,17:01～18:00,0.0451,0.0389,0.0419,
江戸川 (Edogawa),2023-08-02,16:01～17:00,0.0446,0.0386,0.0418,
江戸川 (Edogawa),2023-08-02,15:01～16:00,0.0444,0.0398,0.0420,
江戸川 (Edogawa),2023-08-02,14:01～15:00,0.0447,0.0386,0.0420,
江戸川 (Edogawa),2023-08-02,13:01～14:00,0.0446,0.0387,0.0419,
江戸川 (Edogawa),2023-08-02,12:01～13:00,0.0448,0.0393,0.0421,
江戸川 (Edogawa),2023-08-02,11:01～12:00,0.0450,0.0391,0.0419,
江戸川 (Edogawa),2023-08-02,10:01～11:00,0.0464,0.0387,0.0420,
江戸川 (Edogawa),2023-08-02,09:01～10:00,0.0451,0.0385,0.0421,
江戸川 (Edogawa),2023-08-02,08:01～09:00,0.0437,0.0390,0.0417,
江戸川 (Edogawa),2023-08-02,07:01～08:00,0.0449,0.0394,0.0418,
江戸川 (Edogawa),2023-08-02,06:01～07:00,0.0459,0.0383,0.0421,
江戸川 (Edogawa),2023-08-02,05:01～06:00,0.0444,0.0394,0.0420,
江戸川 (Edogawa),2023-08-02,04:01～05:00,0.0448,0.0389,0.0421,
江戸川 (Edogawa),2023-08-02,03:01～04:00,0.0443,0.0392,0.0416,
江戸川 (Edogawa),2023-08-02,02:01～03:00,0.0447,0.0383,0.0414,
江戸川 (Edogawa),2023-08-02,01:01～02:00,0.0462,0.0397,0.0419,
江戸川 (Edogawa),2023-08-02,00:01～01:00,0.0448,0.0392,0.0417,
江戸川 (Edogawa),2023-08-01,23:01～24:00,0.0450,0.0380,0.0417,
江戸川 (Edogawa),2023-08-01,22:01～23:00,0.0451,0.0391,0.0418,
江戸川 (Edogawa),2023-08-01,21:01～22:00,0.0448,0.0390,0.0418,
江戸川 (Edogawa),2023-08-01,20:01～21:00,0.0442,0.0390,0.0418,
江戸川 (Edogawa),2023-08-01,19:01～20:00,0.0458,0.0380,0.0420,
江戸川 (Edogawa),2023-08-01,18:01～19:00,0.0451,0.0396,0.0418,
江戸川 (Edogawa),2023-08-01,17:01～18:00,0.0460,0.0391,0.0426,
江戸川 (Edogawa),2023-08-01,16:01～17:00,0.0466,0.0412,0.0439,
江戸川 (Edogawa),2023-08-01,15:01～16:00,0.0478,0.0401,0.0439,
江戸川 (Edogawa),2023-08-01,14:01～15:00,0.0479,0.0414,0.0445,
江戸川 (Edogawa),2023-08-01,13:01～14:00,0.0477,0.0392,0.0438,
江戸川 (Edogawa),2023-08-01,12:01～13:00,0.0449,0.0382,0.0414,
江戸川 (Edogawa),2023-08-01,11:01～12:00,0.0447,0.0387,0.0420,
江戸川 (Edogawa),2023-08-01,10:01～11:00,0.0441,0.0391,0.0416,
江戸川 (Edogawa),2023-08-01,09:01～10:00,0.0456,0.0382,0.0423,
江戸川 (Edogawa),2023-08-01,08:01～09:00,0.0448,0.0396,0.0418,
江戸川 (Edogawa),2023-08-01,07:01～08:00,0.0445,0.0390,0.0422,
江戸川 (Edogawa),2023-08-01,06:01～07:00,0.0467,0.0405,0.0436,
江戸川 (Edogawa),2023-08-01,05:01～06:00,0.0528,0.0431,0.0475,
江戸川 (Edogawa),2023-08-01,04:01～05:00,0.0533,0.0471,0.0503,
江戸川 (Edogawa),2023-08-01,03:01～04:00,0.0539,0.0430,0.0484,
江戸川 (Edogawa),2023-08-01,02:01～03:00,0.0451,0.0388,0.0423,
江戸川 (Edogawa),2023-08-01,01:01～02:00,0.0447,0.0395,0.0423,
江戸川 (Edogawa),2023-08-01,00:01～01:00,0.0452,0.0399,0.0423,
江戸川 (Edogawa),2023-07-31,23:01～24:00,0.0452,0.0392,0.0424,
江戸川 (Edogawa),2023-07-31,22:01～23:00,0.0448,0.0387,0.0421,
江戸川 (Edogawa),2023-07-31,21:01～22:00,0.0461,0.0385,0.0422,
江戸川 (Edogawa),2023-07-31,20:01～21:00,0.0450,0.0396,0.0423,
江戸川 (Edogawa),2023-07-31,19:01～20:00,0.0453,0.0395,0.0422,
江戸川 (Edogawa),2023-07-31,18:01～19:00,0.0451,0.0390,0.0418,
江戸川 (Edogawa),2023-07-31,17:01～18:00,0.0450,0.0391,0.0418,
江戸川 (Edogawa),2023-07-31,16:01～17:00,0.0453,0.0382,0.0421,
江戸川 (Edogawa),2023-07-31,15:01～16:00,0.0448,0.0392,0.0422,
江戸川 (Edogawa),2023-07-31,14:01～15:00,0.0459,0.0399,0.0422,
江戸川 (Edogawa),2023-07-31,13:01～14:00,0.0460,0.0377,0.0421,
江戸川 (Edogawa),2023-07-31,12:01～13:00,0.0451,0.0395,0.0424,
江戸川 (Edogawa),2023-07-31,11:01～12:00,0.0449,0.0393,0.0423,
江戸川 (Edogawa),2023-07-31,10:01～11:00,0.0452,0.0394,0.0423,
江戸川 (Edogawa),2023-07-31,09:01～10:00,0.0449,0.0396,0.0421,
江戸川 (Edogawa),2023-07-31,08:01～09:00,0.0464,0.0382,0.0419,
江戸川 (Edogawa),2023-07-31,07:01～08:00,0.0444,0.0396,0.0421,
江戸川 (Edogawa),2023-07-31,06:01～07:00,0.0448,0.0395,0.0420,
江戸川 (Edogawa),2023-07-31,05:01～06:00,0.0456,0.0389,0.0422,
江戸川 (Edogawa),2023-07-31,04:01～05:00,0.0457,0.0394,0.0422,
江戸川 (Edogawa),2023-07-31,03:01～04:00,0.0446,0.0397,0.0420,
江戸川 (Edogawa),2023-07-31,02:01～03:00,0.0456,0.0394,0.0423,
江戸川 (Edogawa),2023-07-31,01:01～02:00,0.0452,0.0389,0.0422,
江戸川 (Edogawa),2023-07-31,00:01～01:00,0.0454,0.0389,0.0422,
